Regional Weather Roundup
Issued by NWS

Home | Current Version | Previous Version | Text Only | Print | Product List | Glossary On
Versions: 1 2 3 4 5 6 7 8 9 10 11 12 13 14 15 16 17 18 19 20 21 22 23 24 25 26 27 28 29 30 31 32 33 34 35 36 37 38 39 40 41 42 43 44 45 46 47 48 49 50
000
ASUS43 KMPX 012310
RWRMN
WEATHER ROUNDUP FOR MINNESOTA
NATIONAL WEATHER SERVICE TWIN CITIES/CHANHASSEN MN
600 PM CDT WED OCT 01 2014


NOTE: "FAIR" INDICATES FEW OR NO CLOUDS BELOW 12,000 FEET WITH NO
SIGNIFICANT WEATHER AND/OR OBSTRUCTIONS TO VISIBILITY. N/A MEANS
CURRENT SKY AND/OR WEATHER CONDITIONS ARE NOT AVAILABLE.

MNZ060>063-068>070-020000-
   Twin Cities Metro

CITY           SKY/WX    TMP DP  RH WIND       PRES   REMARKS
TWIN CITIES    CLOUDY    56  55  97 SE7       29.79R FOG
ST PAUL        CLOUDY    56  55  97 SE7       29.80R FOG
CRYSTAL        CLOUDY    58  54  86 SE5       29.77S
BLAINE         CLOUDY    57  55  94 SE3       29.78S FOG
LAKEVILLE      CLOUDY    55  55 100 S3        29.78R FOG
EDEN PRAIRIE   CLOUDY    58  56  93 SE7       29.77R FOG
SOUTH ST PAUL  CLOUDY    56  55  95 CALM      29.79R FOG
LAKE ELMO      CLOUDY    55  55 100 S5        29.81R FOG
$$
MNZ001>005-007-008-013>017-022>024-027-028-020000-
   Northwest Minnesota

CITY           SKY/WX    TMP DP  RH WIND       PRES   REMARKS
BEMIDJI        CLOUDY    56  53  88 S13       29.68R
HALLOCK        MOCLDY    64  50  59 W15       29.59R
ROSEAU         MOCLDY    61  55  82 SW14      29.60R
WARROAD        MOCLDY    61  57  88 SW10      29.60R
THIEF RVR FALL CLOUDY    63  52  67 SW12      29.64R
CROOKSTON      MOCLDY    64  54  68 W16       29.66R
FOSSTON        CLOUDY    63  52  67 W14G21    29.68R
DETROIT LAKES  PTCLDY    64  50  59 W12       29.71R
PARK RAPIDS    CLOUDY    56  54  93 S14       29.71R FOG
MAHNOMEN       CLOUDY    63  51  63 W20       29.69R
$$
MNZ006-009>011-018-025>026-020000-
   North Central Minnesota

CITY           SKY/WX    TMP DP  RH WIND       PRES   REMARKS
BAUDETTE       CLOUDY    57  53  86 S9G18     29.63R
FLAG ISLAND    CLOUDY    57  55  94 S20G26    29.57R
INTL FALLS     CLOUDY    54  50  86 S9        29.68S
WASKISH        CLOUDY    57  54  88 S10       29.66R
BIG FORK       CLOUDY    54  50  87 MISG      29.72R
LONGVILLE      CLOUDY    54  52  94 S6        29.73R FOG
GRAND RAPIDS   CLOUDY    52  48  87 S9        29.75R
CRANE LAKE     CLOUDY    50  48  93 S6        29.75R
ORR            CLOUDY    50  46  87 S8        29.71R
COOK           RAIN      50  48  93 S7        29.75R
WALKER         CLOUDY    54  52  94 S3        29.71R FOG
$$
MNZ012-019>021-037-020000-
   Northeast Minnesota

CITY           SKY/WX    TMP DP  RH WIND       PRES   REMARKS
DULUTH         CLOUDY    50  48  93 S9        29.78S FOG
ELY            CLOUDY    48  46  93 S7        29.75S
HIBBING        CLOUDY    51  48  89 SE10      29.75S
DULUTH HARBOR  CLOUDY    52  50  93 SE3       29.80R
TWO HARBORS    FOG       48  45  87 E6        29.78F VSB 1/4
SILVER BAY     LGT RAIN  46  46 100 E6        29.78F
GRAND MARAIS     N/A     49  48  97 NE5       29.83F
G MARAIS ARPRT RAIN      45  43  93 S3        29.82F
$$
MNZ029>031-032-039>041-046>048-054>057-064-020000-
   West Central Minnesota

CITY           SKY/WX    TMP DP  RH WIND       PRES   REMARKS
FERGUS FALLS   MOSUNNY   64  48  55 W10       29.72R
WHEATON        PTSUNNY   64  50  59 W12G17    29.75R
MORRIS         MOSUNNY   72  52  49 W10       29.71R
ALEXANDRIA     CLEAR     64  58  80 S10       29.74R
ELBOW LAKE     FAIR      67  51  55 W12G17    29.72R
WADENA         CLOUDY    57  55  94 S7        29.71S FOG
GLENWOOD       PTCLDY    64  59  82 S9        29.73R
APPLETON       SUNNY     72  50  46 NW8       29.71R
BENSON         SUNNY     66  59  77 S6        29.72R
ORTONVILLE     MOSUNNY   70  52  52 NW7       29.73R
MADISON        MOSUNNY   72  52  49 NW7       29.72R
WILLMAR        FAIR      68  55  64 SE9       29.75R
$$
MNZ033>034-036-042>043-049>051-058-059-020000-
   Central Minnesota

CITY           SKY/WX    TMP DP  RH WIND       PRES   REMARKS
ST CLOUD       CLOUDY    59  53  80 SE9       29.75S
SAUK CENTRE    FAIR      62  56  82 SE9       29.74R
PAYNESVILLE    DRIZZLE   59  55  85 E8        29.74S
AITKIN         CLOUDY    55  50  82 S7        29.75R
PINE RIVER     CLOUDY    54  54 100 S9        29.77R FOG
BRAINERD       CLOUDY    53  51  93 S9        29.75S FOG
STAPLES        CLOUDY    55  54  94 SE7       29.73R FOG
LONG PRAIRIE   FAIR      59  54  82 SE8       29.75R
LITTLE FALLS   CLOUDY    55  52  88 SE7       29.75R
LITCHFIELD     MOCLDY    61  57  88 SE7       29.77R
BUFFALO        CLOUDY    56  53  87 SE5       29.78S
MAPLE LAKE     CLOUDY    58  55  92 SE3       29.78S
$$
MNZ037-044-045-052-053-020000-
   East Central Minnesota

CITY           SKY/WX    TMP DP  RH WIND       PRES   REMARKS
PRINCETON      CLOUDY    55  54  94 SE5       29.78S
MORA           CLOUDY    52  50  93 S7        29.80S
CAMBRIDGE      CLOUDY    57  48  72 S6        29.77S
RUSH CITY      CLOUDY    53  51  93 SE5       29.79S
MOOSE LAKE     LGT RAIN  50  48  93 S5        29.77S
HINCKLEY       CLOUDY    52  52 100 S6        29.79S
CLOQUET        RAIN      50  48  93 SE5       29.78S
MCGREGOR       CLOUDY    50  50 100 S9        29.77S
$$
MNZ071>073-080-081-089-090-097-098-020000-
   Southwest Minnesota

CITY           SKY/WX    TMP DP  RH WIND       PRES   REMARKS
MONTEVIDEO     MOSUNNY   70  61  73 S6        29.73R
GRANITE FALLS  MOSUNNY   67  59  73 E6        29.74R
CANBY          SUNNY     71  51  49 NW9       29.74R
MARSHALL       CLOUDY    72  59  64 E3        29.71R
REDWOOD FALLS  LGT RAIN  66  58  75 E5        29.74R
OLIVIA         LGT RAIN  63  57  82 SE7       29.74R
PIPESTONE      MOSUNNY   70  57  64 NW5       29.74S
WINDOM         MOSUNNY   70  57  64 S5        29.74R
WORTHINGTON    CLOUDY    68  61  77 S6        29.74R
JACKSON        SUNNY     70  55  60 S3        29.76R
TRACY          MOSUNNY   71  56  59 SW6       29.72S
SLAYTON        MOSUNNY   69  55  60 W5        29.75R
$$
MNZ065>067-074>077-082>085-091>093-020000-
   South Central Minnesota

CITY           SKY/WX    TMP DP  RH WIND       PRES   REMARKS
MANKATO        CLOUDY    63  55  77 SE8       29.76S
NEW ULM        PTCLDY    61  59  94 E5        29.75R
ST JAMES       CLEAR     68  59  73 SE5       29.75S
FAIRMONT       CLEAR     70  57  64 SE5       29.75S
GLENCOE        CLOUDY    60  57  91 S5        29.77S
FARIBAULT      CLOUDY    61  57  88 S6        29.79R FOG
OWATONNA       PTCLDY    61  57  88 SE7       29.79R FOG
WASECA         CLOUDY    59  54  82 SE5       29.79S HAZE
ALBERT LEA     CLOUDY    61  61 100 SE5       29.78S FOG
$$
MNZ078>079-086>088-094>096-020000-
   Southeast Minnesota

CITY           SKY/WX    TMP DP  RH WIND       PRES   REMARKS
ROCHESTER      CLOUDY    59  56  89 SE7       29.81R
RED WING       CLOUDY    57  55  94 SE6       29.80R
STANTON        CLOUDY    60  56  87 CALM      29.78R
DODGE CENTER   CLOUDY    61  57  88 S6        29.80S FOG
WINONA         CLOUDY    59  55  88 SE5       29.81R
AUSTIN         CLOUDY    61  57  88 CALM      29.80R
PRESTON        CLOUDY    58  54  85 CALM      29.82R
$$
ABBREVIATIONS USED IN REMARKS
   TC - TEMPERATURES IN CELSIUS
  WCI - WIND CHILL INDEX
   HX - HEAT INDEX
  VSB - VISIBILITY
$$



USA.gov is the U.S. government's official web portal to all federal, state and local government web resources and services.